sat.trackr.live / text

‹ back to catalog

STARLINK-36962

NORAD 68269 · 2026-055H

PAYLOAD ACTIVE UNKNOWN

§ Identity

Operator
Country
US
Launch date
2026-03-19
Launch site
AFETR
Launch vehicle
Mass (kg)
RCS (m²)

Purposes: comms

External: N2YO · Heavens-Above · Gunter

§ Orbital elements

Epoch: 2026-05-25T04:49:37.506720Z

Period
93.85 min
Inclination
53.1584°
Eccentricity
0.0001188
Mean motion
15.34412648 rev/d
Perigee alt
461.9 km
Apogee alt
463.5 km
Semi-major
6,840.8 km
B*
6.0881e-4
RAAN
322.5490°
Arg perigee
77.3689°
Mean anomaly
282.7446°
Rev number
1,166

§ Raw data

STARLINK-369621 68269U 26055H   26145.20112855  .00020257  00000+0  60881-3 0  99922 68269  53.1584 322.5490 0001188  77.3689 282.7446 15.34412648 11667

JSON: /api/v1/satellites/68269 · /tle

For live sub-satellite position, see the globe view (requires WebGL).

§ Visibility from observer

Set your observer location to see the next 7 days of passes ≥ 10°. The values pass through the URL so the page stays shareable.

No JS? Fill the form by hand. The geolocation button needs JavaScript.